Piney Island, NC

5:11 PM EDT on May 25, 2018 (GMT -0400)
Piney Island

Weather History for KNBT - September, 2013

Change the Weather History Date:

Wednesday, September 18, 2013

  Actual Average (KMRH) Record (KMRH)
Temperature  
Mean Temperature 70 °F -  
Max Temperature 75 °F 82 °F 88 °F (1952)
Min Temperature 66 °F 67 °F 53 °F (1990)
Cooling Degree Days 6    
Growing Degree Days 20 (Base 50)    
Moisture  
Dew Point 58 °F    
Average Humidity 64    
Maximum Humidity 73    
Minimum Humidity 55    
Precipitation  
Precipitation 0.00 in - - ()
Sea Level Pressure  
Sea Level Pressure 30.22 in    
Wind  
Wind Speed 12 mph (NE)    
Max Wind Speed 16 mph    
Max Gust Speed 22 mph    
Visibility 10 miles    
Events Rain    
Averages and records for this station are not official NWS values.
T = Trace of Precipitation, MM = Missing Value Source: NWS Daily Summary

Daily Weather History Graph

Daily Weather History Graph

Search for Another Location

Airport or City:

Astronomy

Sep. 18, 2013 Rise Set
Actual Time 6:51 AM EDT 7:08 PM EDT
Civil Twilight 6:25 AM EDT 7:33 PM EDT
Nautical Twilight 5:56 AM EDT 8:02 PM EDT
Astronomical Twilight 5:25 AM EDT 8:32 PM EDT
Moon 6:30 PM EDT (9/18) 5:51 AM EDT (9/18)
Length of Visible Light 13h 07m
Length of Day
12h 17m
Waxing Gibbous, 99% of the Moon is Illuminated
Sep 18
Waxing Gibbous
Sep 19
Full
Sep 26
Last Quarter
Oct 4
New
Oct 11
First Quarter

Hourly Weather History & Observations

Time (EDT) Temp. Dew Point Humidity Pressure Visibility Wind Dir Wind Speed Gust Speed Precip Events Conditions
12:56 AM 68.0 °F 55.9 °F 65% 30.25 in 10.0 mi NNE 15.0 mph - N/A   Mostly Cloudy
1:56 AM 68.0 °F 57.0 °F 68% 30.24 in 10.0 mi NNE 10.4 mph - N/A   Mostly Cloudy
2:56 AM 68.0 °F 57.9 °F 70% 30.22 in 10.0 mi NNE 13.8 mph - N/A   Scattered Clouds
3:56 AM 68.0 °F 59.0 °F 73% 30.21 in 10.0 mi NNE 10.4 mph 18.4 mph N/A   Scattered Clouds
4:56 AM 68.0 °F 59.0 °F 73% 30.21 in 10.0 mi NNE 11.5 mph - N/A   Clear
5:56 AM 68.0 °F 57.9 °F 70% 30.22 in 10.0 mi North 9.2 mph - N/A   Clear
6:56 AM 66.9 °F 57.9 °F 73% 30.23 in 10.0 mi North 10.4 mph - N/A   Clear
7:56 AM 69.1 °F 60.1 °F 73% 30.24 in 10.0 mi North 12.7 mph - N/A   Mostly Cloudy
9:56 AM 72.0 °F 59.0 °F 64% 30.25 in 10.0 mi NNE 15.0 mph 21.9 mph N/A   Clear
10:56 AM 73.9 °F 60.1 °F 62% 30.25 in 10.0 mi NNE 13.8 mph - 0.00 in Rain Light Rain
11:56 AM 73.9 °F 59.0 °F 59% 30.25 in 10.0 mi NE 16.1 mph - 0.00 in Rain Light Rain
12:56 PM 73.9 °F 59.0 °F 59% 30.24 in 10.0 mi NE 15.0 mph - 0.00 in Rain Light Rain
1:56 PM 75.0 °F 59.0 °F 57% 30.22 in 10.0 mi NE 11.5 mph - 0.00 in Rain Light Rain
2:56 PM 75.9 °F 59.0 °F 56% 30.20 in 10.0 mi ENE 11.5 mph - 0.00 in Rain Light Rain
3:56 PM 73.9 °F 57.0 °F 55% 30.19 in 10.0 mi ENE 11.5 mph - 0.00 in Rain Light Rain
4:56 PM 73.0 °F 57.0 °F 57% 30.18 in 10.0 mi ENE 10.4 mph - 0.00 in Rain Light Rain
5:56 PM 72.0 °F 57.9 °F 61% 30.19 in 10.0 mi ENE 12.7 mph - 0.00 in Rain Light Rain
6:56 PM 71.1 °F 55.9 °F 59% 30.19 in 10.0 mi ENE 11.5 mph - 0.00 in Rain Light Rain
7:56 PM 71.1 °F 57.0 °F 61% 30.19 in 10.0 mi ENE 13.8 mph - 0.00 in Rain Light Rain
8:56 PM 70.0 °F 55.9 °F 61% 30.20 in 10.0 mi ENE 12.7 mph - 0.00 in Rain Light Rain
9:56 PM 70.0 °F 57.0 °F 63% 30.20 in 10.0 mi ENE 6.9 mph - 0.00 in Rain Light Rain
10:56 PM 70.0 °F 57.0 °F 63% 30.19 in 10.0 mi ENE 9.2 mph - 0.00 in Rain Light Rain
11:56 PM 69.1 °F 57.0 °F 65% 30.19 in 10.0 mi NE 4.6 mph - 0.00 in   Clear